IRA974T FAPE-FALE

Flight info

Callsign IRA974T
Flight time 1h 17m
Altitude 35000
Route PEV DCT ITKIT UQ30 IMLID UQ12 DUNSA DUNSA1B
Aircraft B738/M-SDE2E3FGHIRWXY/LB1

Departure

Time 2026-04-28 20:51
Airport Chief Dawid Stuurman International Airport (FAPE)

Arrival

Time 2026-04-28 22:09
Airport King Shaka International Airport (FALE)
Time Latitude Longitude Altitude Speed Heading
2026-04-28 20:38 -33.98361 25.61401 211 ft 0 kts 328°
2026-04-28 20:46 -33.98377 25.61413 216 ft 4 kts 334°
2026-04-28 20:46 -33.98402 25.61424 217 ft 4 kts 351°
2026-04-28 20:47 -33.98426 25.61423 218 ft 4 kts 38°
2026-04-28 20:47 -33.98433 25.61414 218 ft 1 kts 70°
2026-04-28 20:49 -33.98423 25.61445 218 ft 10 kts 66°
2026-04-28 20:49 -33.98387 25.61522 215 ft 11 kts 59°
2026-04-28 20:49 -33.98356 25.61600 214 ft 10 kts 92°
2026-04-28 20:49 -33.98406 25.61658 213 ft 10 kts 144°
2026-04-28 20:50 -33.98462 25.61706 219 ft 10 kts 144°
2026-04-28 20:50 -33.98519 25.61675 209 ft 15 kts 233°
2026-04-28 20:50 -33.98614 25.61498 216 ft 36 kts 239°
2026-04-28 20:50 -33.98799 25.61126 215 ft 77 kts 239°
2026-04-28 20:51 -33.99236 25.60284 212 ft 156 kts 238°
2026-04-28 20:51 -33.99889 25.59076 763 ft 180 kts 236°
2026-04-28 20:51 -34.00405 25.57635 1633 ft 198 kts 261°
2026-04-28 20:51 -34.00414 25.56507 2041 ft 212 kts 282°
2026-04-28 20:52 -33.99173 25.54602 2509 ft 240 kts 335°
2026-04-28 20:52 -33.97489 25.54348 3011 ft 252 kts
2026-04-28 20:52 -33.95772 25.54857 3827 ft 257 kts 26°
2026-04-28 20:52 -33.94453 25.56274 4708 ft 258 kts 60°
2026-04-28 20:53 -33.93607 25.60499 6389 ft 265 kts 76°
2026-04-28 20:53 -33.93074 25.62636 7199 ft 268 kts 69°
2026-04-28 20:53 -33.92292 25.64685 8008 ft 271 kts 60°
2026-04-28 20:54 -33.91243 25.66580 8799 ft 274 kts 51°
2026-04-28 20:54 -33.89955 25.68292 9580 ft 278 kts 44°
2026-04-28 20:54 -33.88492 25.69828 10348 ft 281 kts 38°
2026-04-28 20:54 -33.86923 25.71251 11102 ft 284 kts 37°
2026-04-28 20:55 -33.85330 25.72679 11846 ft 287 kts 37°
2026-04-28 20:55 -33.83720 25.74120 12573 ft 290 kts 37°
2026-04-28 20:55 -33.82109 25.75559 13282 ft 294 kts 37°
2026-04-28 20:55 -33.80439 25.77049 14006 ft 297 kts 37°
2026-04-28 20:56 -33.78795 25.78515 14680 ft 300 kts 37°
2026-04-28 20:56 -33.77088 25.80035 15372 ft 303 kts 36°
2026-04-28 20:56 -33.75409 25.81531 16032 ft 306 kts 36°
2026-04-28 20:56 -33.73666 25.83081 16698 ft 309 kts 36°
2026-04-28 20:57 -33.71930 25.84625 17342 ft 312 kts 36°
2026-04-28 20:57 -33.70173 25.86186 17973 ft 315 kts 36°
2026-04-28 20:57 -33.68400 25.87761 18584 ft 319 kts 36°
2026-04-28 20:57 -33.66631 25.89331 19190 ft 322 kts 36°
2026-04-28 20:58 -33.64824 25.90935 19786 ft 325 kts 36°
2026-04-28 20:58 -33.62999 25.92553 20369 ft 328 kts 36°
2026-04-28 20:58 -33.61158 25.94185 20931 ft 331 kts 36°
2026-04-28 20:58 -33.59295 25.95835 21476 ft 334 kts 36°
2026-04-28 20:59 -33.57415 25.97500 22019 ft 337 kts 36°
2026-04-28 20:59 -33.55519 25.99177 22557 ft 340 kts 36°
2026-04-28 20:59 -33.53608 26.00868 23065 ft 343 kts 36°
2026-04-28 20:59 -33.51677 26.02574 23579 ft 346 kts 36°
2026-04-28 21:00 -33.49734 26.04291 24088 ft 348 kts 36°
2026-04-28 21:00 -33.47778 26.06017 24577 ft 351 kts 36°
2026-04-28 21:00 -33.45806 26.07758 25053 ft 353 kts 36°
2026-04-28 21:00 -33.43818 26.09512 25501 ft 356 kts 36°
2026-04-28 21:01 -33.41815 26.11278 25925 ft 360 kts 36°
2026-04-28 21:01 -33.39792 26.13060 26375 ft 362 kts 36°
2026-04-28 21:01 -33.37761 26.14847 26874 ft 362 kts 36°
2026-04-28 21:01 -33.35820 26.16751 27397 ft 361 kts 45°
2026-04-28 21:02 -33.34182 26.19015 27895 ft 360 kts 52°
2026-04-28 21:02 -33.32647 26.21372 28399 ft 358 kts 52°
2026-04-28 21:02 -33.31130 26.23740 28842 ft 359 kts 52°
2026-04-28 21:02 -33.29617 26.26104 29288 ft 358 kts 52°
2026-04-28 21:03 -33.28103 26.28460 29755 ft 357 kts 52°
2026-04-28 21:03 -33.26589 26.30803 30170 ft 356 kts 52°
2026-04-28 21:03 -33.25072 26.33141 30571 ft 355 kts 52°
2026-04-28 21:03 -33.23557 26.35469 30953 ft 355 kts 52°
2026-04-28 21:04 -33.22037 26.37799 31302 ft 355 kts 52°
2026-04-28 21:04 -33.20519 26.40124 31683 ft 354 kts 52°
2026-04-28 21:04 -33.19007 26.42435 32070 ft 353 kts 52°
2026-04-28 21:04 -33.17497 26.44742 32410 ft 352 kts 52°
2026-04-28 21:05 -33.15987 26.47047 32744 ft 352 kts 52°
2026-04-28 21:05 -33.14483 26.49340 33097 ft 350 kts 52°
2026-04-28 21:05 -33.12984 26.51626 33402 ft 350 kts 52°
2026-04-28 21:05 -33.11483 26.53912 33699 ft 350 kts 52°
2026-04-28 21:06 -33.10003 26.56165 33971 ft 350 kts 52°
2026-04-28 21:06 -33.08506 26.58442 34271 ft 348 kts 52°
2026-04-28 21:06 -33.07012 26.60715 34550 ft 348 kts 52°
2026-04-28 21:06 -33.05519 26.62982 34784 ft 348 kts 52°
2026-04-28 21:07 -33.04021 26.65257 35005 ft 349 kts 52°
2026-04-28 21:07 -33.03009 26.66794 35112 ft 350 kts 52°
2026-04-28 21:07 -33.01000 26.69841 35220 ft 355 kts 52°
2026-04-28 21:07 -32.99468 26.72164 35372 ft 357 kts 52°
2026-04-28 21:08 -32.97932 26.74490 35563 ft 357 kts 52°
2026-04-28 21:08 -32.96392 26.76822 35722 ft 359 kts 52°
2026-04-28 21:08 -32.94846 26.79160 35883 ft 360 kts 52°
2026-04-28 21:08 -32.93299 26.81499 36068 ft 360 kts 52°
2026-04-28 21:09 -32.91748 26.83843 36221 ft 361 kts 52°
2026-04-28 21:09 -32.90193 26.86191 36389 ft 361 kts 52°
2026-04-28 21:09 -32.88640 26.88535 36549 ft 361 kts 52°
2026-04-28 21:09 -32.87082 26.90884 36707 ft 362 kts 52°
2026-04-28 21:10 -32.85522 26.93237 36843 ft 363 kts 52°
2026-04-28 21:10 -32.83956 26.95595 36949 ft 364 kts 52°
2026-04-28 21:10 -32.82382 26.97964 37050 ft 366 kts 52°
2026-04-28 21:10 -32.80799 27.00346 37148 ft 368 kts 52°
2026-04-28 21:11 -32.79207 27.02738 37253 ft 369 kts 52°
2026-04-28 21:11 -32.77612 27.05134 37365 ft 371 kts 51°
2026-04-28 21:11 -32.76010 27.07541 37472 ft 372 kts 51°
2026-04-28 21:11 -32.74404 27.09951 37580 ft 373 kts 51°
2026-04-28 21:12 -32.72794 27.12365 37689 ft 374 kts 51°
2026-04-28 21:12 -32.71175 27.14790 37784 ft 375 kts 51°
2026-04-28 21:12 -32.67923 27.19659 37947 ft 378 kts 51°
2026-04-28 21:13 -32.64646 27.24559 38127 ft 380 kts 51°
2026-04-28 21:13 -32.61903 27.28654 38228 ft 383 kts 51°
2026-04-28 21:14 -32.58579 27.33612 38409 ft 385 kts 51°
2026-04-28 21:14 -32.56371 27.36902 38552 ft 385 kts 51°
2026-04-28 21:14 -32.55244 27.38579 38625 ft 385 kts 51°
2026-04-28 21:15 -32.51906 27.43546 38805 ft 386 kts 51°
2026-04-28 21:15 -32.48547 27.48535 38928 ft 388 kts 51°
2026-04-28 21:16 -32.45166 27.53551 39057 ft 390 kts 51°
2026-04-28 21:16 -32.41772 27.58581 39207 ft 392 kts 51°
2026-04-28 21:17 -32.38363 27.63625 39344 ft 393 kts 51°
2026-04-28 21:17 -32.34942 27.68681 39492 ft 394 kts 51°
2026-04-28 21:18 -32.31539 27.73703 39657 ft 394 kts 51°
2026-04-28 21:18 -32.28109 27.78758 39797 ft 395 kts 51°
2026-04-28 21:19 -32.24661 27.83834 39866 ft 397 kts 51°
2026-04-28 21:19 -32.21187 27.88941 39908 ft 400 kts 51°
2026-04-28 21:20 -32.17560 27.93972 39831 ft 407 kts 48°
2026-04-28 21:20 -32.15647 27.96468 39702 ft 412 kts 47°
2026-04-28 21:20 -32.13702 27.98984 39579 ft 418 kts 47°
2026-04-28 21:21 -32.11713 28.01558 39213 ft 431 kts 47°
2026-04-28 21:21 -32.09687 28.04189 38858 ft 435 kts 48°
2026-04-28 21:21 -32.07660 28.06830 38477 ft 433 kts 48°
2026-04-28 21:21 -32.05655 28.09448 38093 ft 428 kts 48°
2026-04-28 21:22 -32.03672 28.12041 37713 ft 423 kts 48°
2026-04-28 21:22 -32.01711 28.14606 37340 ft 420 kts 48°
2026-04-28 21:22 -31.99762 28.17154 36965 ft 417 kts 48°
2026-04-28 21:22 -31.97831 28.19678 36590 ft 413 kts 48°
2026-04-28 21:23 -31.95909 28.22187 36210 ft 414 kts 48°
2026-04-28 21:23 -31.93952 28.24741 35731 ft 427 kts 48°
2026-04-28 21:23 -31.91936 28.27370 35264 ft 437 kts 48°
2026-04-28 21:23 -31.89888 28.30038 35046 ft 439 kts 48°
2026-04-28 21:24 -31.85785 28.35377 35012 ft 440 kts 48°
2026-04-28 21:24 -31.81682 28.40709 34986 ft 439 kts 48°
2026-04-28 21:25 -31.77581 28.46030 35000 ft 440 kts 48°
2026-04-28 21:25 -31.73469 28.51359 35002 ft 440 kts 47°
2026-04-28 21:26 -31.69378 28.56653 35002 ft 441 kts 47°
2026-04-28 21:26 -31.65251 28.61986 35003 ft 442 kts 47°
2026-04-28 21:27 -31.61113 28.67324 35001 ft 442 kts 47°
2026-04-28 21:27 -31.56973 28.72659 35002 ft 442 kts 47°
2026-04-28 21:28 -31.52831 28.77988 35004 ft 442 kts 47°
2026-04-28 21:28 -31.48689 28.83309 35006 ft 442 kts 47°
2026-04-28 21:29 -31.44546 28.88625 34999 ft 442 kts 47°
2026-04-28 21:29 -31.40405 28.93931 35005 ft 441 kts 47°
2026-04-28 21:30 -31.36259 28.99236 35005 ft 442 kts 47°
2026-04-28 21:30 -31.32112 29.04535 34999 ft 441 kts 47°
2026-04-28 21:31 -31.27993 29.09793 35000 ft 441 kts 47°
2026-04-28 21:31 -31.23849 29.15071 35004 ft 440 kts 47°
2026-04-28 21:32 -31.19710 29.20334 34999 ft 440 kts 47°
2026-04-28 21:32 -31.15572 29.25590 35002 ft 439 kts 47°
2026-04-28 21:33 -31.11437 29.30837 34996 ft 439 kts 47°
2026-04-28 21:33 -31.07300 29.36080 34999 ft 439 kts 47°
2026-04-28 21:34 -31.03166 29.41312 35000 ft 439 kts 47°
2026-04-28 21:34 -30.99022 29.46549 35004 ft 440 kts 47°
2026-04-28 21:35 -30.94873 29.51786 35001 ft 440 kts 47°
2026-04-28 21:35 -30.90717 29.57024 35004 ft 441 kts 47°
2026-04-28 21:36 -30.86552 29.62266 34997 ft 441 kts 47°
2026-04-28 21:36 -30.82378 29.67512 34999 ft 442 kts 47°
2026-04-28 21:37 -30.78195 29.72762 34999 ft 443 kts 47°
2026-04-28 21:37 -30.74035 29.77978 35001 ft 443 kts 47°
2026-04-28 21:38 -30.69846 29.83221 35000 ft 443 kts 47°
2026-04-28 21:38 -30.65647 29.88471 34714 ft 446 kts 47°
2026-04-28 21:39 -30.63537 29.91106 34298 ft 446 kts 47°
2026-04-28 21:39 -30.61418 29.93750 33644 ft 447 kts 47°
2026-04-28 21:39 -30.59307 29.96385 33029 ft 445 kts 47°
2026-04-28 21:39 -30.57202 29.99009 32416 ft 443 kts 47°
2026-04-28 21:40 -30.55102 30.01623 31801 ft 442 kts 47°
2026-04-28 21:40 -30.53075 30.04294 31175 ft 441 kts 51°
2026-04-28 21:40 -30.51170 30.07084 30559 ft 441 kts 52°
2026-04-28 21:40 -30.49313 30.09928 29948 ft 444 kts 53°
2026-04-28 21:41 -30.47450 30.12805 29335 ft 449 kts 53°
2026-04-28 21:41 -30.45583 30.15671 28683 ft 441 kts 53°
2026-04-28 21:41 -30.43746 30.18463 28053 ft 430 kts 52°
2026-04-28 21:41 -30.41941 30.21184 27421 ft 422 kts 52°
2026-04-28 21:42 -30.40167 30.23844 26798 ft 413 kts 52°
2026-04-28 21:42 -30.38412 30.26468 26180 ft 415 kts 52°
2026-04-28 21:42 -30.36635 30.29121 25560 ft 415 kts 52°
2026-04-28 21:42 -30.34884 30.31735 24927 ft 407 kts 52°
2026-04-28 21:43 -30.33166 30.34298 24293 ft 400 kts 52°
2026-04-28 21:43 -30.31478 30.36815 23674 ft 392 kts 52°
2026-04-28 21:43 -30.29819 30.39289 23048 ft 386 kts 52°
2026-04-28 21:43 -30.28182 30.41729 22428 ft 382 kts 52°
2026-04-28 21:44 -30.26562 30.44142 21803 ft 377 kts 52°
2026-04-28 21:44 -30.24959 30.46528 21168 ft 373 kts 52°
2026-04-28 21:44 -30.23372 30.48885 20567 ft 369 kts 52°
2026-04-28 21:44 -30.21772 30.51188 19936 ft 366 kts 51°
2026-04-28 21:45 -30.20162 30.53451 19313 ft 363 kts 50°
2026-04-28 21:45 -30.18559 30.55689 18685 ft 360 kts 50°
2026-04-28 21:45 -30.16972 30.57906 18068 ft 357 kts 50°
2026-04-28 21:45 -30.15397 30.60110 17443 ft 354 kts 50°
2026-04-28 21:46 -30.13838 30.62296 16825 ft 351 kts 50°
2026-04-28 21:46 -30.12292 30.64466 16198 ft 348 kts 50°
2026-04-28 21:46 -30.10766 30.66608 15571 ft 344 kts 50°
2026-04-28 21:46 -30.09255 30.68729 14948 ft 340 kts 50°
2026-04-28 21:47 -30.07762 30.70824 14321 ft 336 kts 50°
2026-04-28 21:47 -30.06306 30.72866 13703 ft 332 kts 50°
2026-04-28 21:47 -30.04843 30.74917 13083 ft 329 kts 50°
2026-04-28 21:47 -30.03374 30.76974 12451 ft 326 kts 50°
2026-04-28 21:48 -30.01957 30.78957 11839 ft 323 kts 50°
2026-04-28 21:48 -30.00511 30.80976 11201 ft 321 kts 50°
2026-04-28 21:48 -29.99113 30.82924 10592 ft 318 kts 50°
2026-04-28 21:48 -29.97707 30.84882 9968 ft 316 kts 50°
2026-04-28 21:49 -29.96311 30.86825 9353 ft 313 kts 50°
2026-04-28 21:49 -29.94938 30.88738 8886 ft 306 kts 50°
2026-04-28 21:49 -29.93601 30.90598 8527 ft 296 kts 50°
2026-04-28 21:49 -29.92318 30.92383 8328 ft 284 kts 50°
2026-04-28 21:50 -29.91071 30.94118 8126 ft 279 kts 50°
2026-04-28 21:50 -29.89844 30.95824 7926 ft 274 kts 50°
2026-04-28 21:50 -29.88638 30.97499 7718 ft 269 kts 50°
2026-04-28 21:50 -29.87450 30.99149 7513 ft 265 kts 50°
2026-04-28 21:51 -29.86281 31.00773 7310 ft 261 kts 50°
2026-04-28 21:51 -29.85127 31.02375 7108 ft 258 kts 50°
2026-04-28 21:51 -29.83999 31.03941 6987 ft 251 kts 50°
2026-04-28 21:51 -29.82896 31.05471 6880 ft 246 kts 50°
2026-04-28 21:52 -29.81807 31.06982 6779 ft 245 kts 50°
2026-04-28 21:52 -29.80716 31.08495 6687 ft 246 kts 50°
2026-04-28 21:52 -29.79621 31.10011 6593 ft 246 kts 50°
2026-04-28 21:52 -29.78524 31.11529 6492 ft 247 kts 50°
2026-04-28 21:53 -29.77428 31.13046 6396 ft 247 kts 50°
2026-04-28 21:53 -29.76283 31.14518 6289 ft 247 kts 42°
2026-04-28 21:53 -29.74944 31.15753 6197 ft 247 kts 37°
2026-04-28 21:53 -29.73561 31.16922 6098 ft 247 kts 36°
2026-04-28 21:54 -29.72176 31.18086 5998 ft 247 kts 36°
2026-04-28 21:54 -29.70793 31.19257 5899 ft 247 kts 36°
2026-04-28 21:54 -29.69416 31.20431 5798 ft 246 kts 37°
2026-04-28 21:54 -29.68045 31.21608 5698 ft 246 kts 37°
2026-04-28 21:55 -29.66678 31.22785 5601 ft 245 kts 37°
2026-04-28 21:55 -29.65313 31.23964 5497 ft 245 kts 37°
2026-04-28 21:55 -29.63955 31.25140 5396 ft 244 kts 37°
2026-04-28 21:55 -29.62600 31.26314 5295 ft 243 kts 37°
2026-04-28 21:56 -29.61251 31.27484 5197 ft 243 kts 37°
2026-04-28 21:56 -29.59925 31.28635 5092 ft 240 kts 37°
2026-04-28 21:56 -29.58611 31.29774 4976 ft 233 kts 37°
2026-04-28 21:56 -29.57327 31.30888 4868 ft 229 kts 37°
2026-04-28 21:57 -29.56043 31.32002 4768 ft 228 kts 37°
2026-04-28 21:57 -29.54775 31.33102 4669 ft 228 kts 37°
2026-04-28 21:57 -29.53525 31.34186 4572 ft 228 kts 37°
2026-04-28 21:57 -29.52258 31.35284 4474 ft 228 kts 37°
2026-04-28 21:58 -29.50972 31.36398 4372 ft 228 kts 37°
2026-04-28 21:58 -29.50134 31.37123 4309 ft 228 kts 37°
2026-04-28 21:58 -29.48449 31.38581 4158 ft 223 kts 37°
2026-04-28 21:58 -29.47203 31.39601 4019 ft 217 kts 35°
2026-04-28 21:59 -29.45980 31.40579 3885 ft 211 kts 35°
2026-04-28 21:59 -29.44807 31.41513 3798 ft 206 kts 34°
2026-04-28 21:59 -29.43649 31.42435 3652 ft 199 kts 34°
2026-04-28 22:00 -29.41271 31.42586 3326 ft 177 kts 313°
2026-04-28 22:00 -29.40631 31.41458 3203 ft 166 kts 288°
2026-04-28 22:00 -29.40484 31.40166 3114 ft 164 kts 260°
2026-04-28 22:00 -29.40765 31.38906 3047 ft 164 kts 255°
2026-04-28 22:01 -29.41065 31.37642 3042 ft 165 kts 255°
2026-04-28 22:01 -29.41393 31.36276 3207 ft 183 kts 254°
2026-04-28 22:01 -29.41720 31.34925 3222 ft 173 kts 254°
2026-04-28 22:01 -29.42034 31.33630 3093 ft 164 kts 254°
2026-04-28 22:02 -29.42337 31.32385 2980 ft 161 kts 254°
2026-04-28 22:02 -29.42640 31.31141 2884 ft 162 kts 254°
2026-04-28 22:02 -29.42944 31.29893 2802 ft 164 kts 254°
2026-04-28 22:02 -29.43147 31.29058 2731 ft 164 kts 254°
2026-04-28 22:03 -29.43586 31.27394 2584 ft 164 kts 244°
2026-04-28 22:03 -29.44370 31.26514 2577 ft 155 kts 213°
2026-04-28 22:03 -29.45219 31.25800 2559 ft 149 kts 218°
2026-04-28 22:03 -29.46035 31.25075 2584 ft 145 kts 217°
2026-04-28 22:04 -29.46562 31.24611 2569 ft 143 kts 217°
2026-04-28 22:04 -29.47345 31.23928 2565 ft 141 kts 217°
2026-04-28 22:04 -29.48132 31.23243 2569 ft 142 kts 217°
2026-04-28 22:04 -29.48923 31.22556 2564 ft 143 kts 217°
2026-04-28 22:05 -29.49714 31.21869 2559 ft 142 kts 217°
2026-04-28 22:05 -29.50490 31.21195 2523 ft 138 kts 217°
2026-04-28 22:05 -29.51256 31.20531 2382 ft 138 kts 217°
2026-04-28 22:05 -29.52020 31.19868 2203 ft 137 kts 217°
2026-04-28 22:06 -29.52774 31.19213 2026 ft 136 kts 217°
2026-04-28 22:06 -29.53528 31.18559 1848 ft 136 kts 217°
2026-04-28 22:06 -29.54281 31.17906 1670 ft 135 kts 217°
2026-04-28 22:06 -29.55030 31.17256 1486 ft 135 kts 217°
2026-04-28 22:07 -29.55778 31.16607 1309 ft 135 kts 217°
2026-04-28 22:07 -29.56524 31.15961 1131 ft 134 kts 217°
2026-04-28 22:07 -29.57268 31.15315 952 ft 134 kts 217°
2026-04-28 22:07 -29.58011 31.14671 775 ft 134 kts 217°
2026-04-28 22:08 -29.58750 31.14029 598 ft 133 kts 217°
2026-04-28 22:08 -29.59489 31.13389 421 ft 133 kts 217°
2026-04-28 22:08 -29.60227 31.12764 281 ft 125 kts 217°
2026-04-28 22:08 -29.60797 31.12265 279 ft 75 kts 217°
2026-04-28 22:09 -29.60977 31.12086 281 ft 16 kts 251°
2026-04-28 22:09 -29.60974 31.12026 283 ft 1 kts 352°
2026-04-28 22:09 -29.60950 31.12026 279 ft 9 kts
2026-04-28 22:09 -29.60879 31.12005 279 ft 13 kts 303°
2026-04-28 22:10 -29.60919 31.11923 279 ft 15 kts 217°
2026-04-28 22:10 -29.61011 31.11842 280 ft 19 kts 217°
2026-04-28 22:10 -29.61125 31.11742 280 ft 22 kts 217°
2026-04-28 22:10 -29.61259 31.11625 280 ft 26 kts 217°
2026-04-28 22:11 -29.61313 31.11445 282 ft 25 kts 238°
2026-04-28 22:11 -29.61456 31.11319 279 ft 27 kts 217°
2026-04-28 22:11 -29.61615 31.11180 279 ft 30 kts 217°
2026-04-28 22:11 -29.61698 31.10997 279 ft 29 kts 308°
2026-04-28 22:12 -29.61766 31.10839 279 ft 25 kts 212°
2026-04-28 22:12 -29.61903 31.10734 279 ft 23 kts 214°
2026-04-28 22:12 -29.62034 31.10634 279 ft 22 kts 213°
2026-04-28 22:12 -29.62097 31.10558 279 ft 11 kts 269°
2026-04-28 22:13 -29.62065 31.10501 279 ft 2 kts 307°
2026-04-28 22:13 -29.62061 31.10494 279 ft 0 kts 307°